GW4049 Weather Reports


time (UTC)temp
C
wind
direction
speed
KPH
gust
KPH
rain 1hr
cm
rain 24hr
cm
rain mn
cm
humidity
%
barometer
mb
20260901112808 8 224 3.2 3.2 0.00 0.13 0.13 96 1031.2
20260901112307 9 232 3.2 4.8 0.00 0.13 0.13 93 1031.4
20260901111802 9 224 8.0 9.7 0.00 0.13 0.13 90 1031.1
20260901111301 8 232 3.2 4.8 0.00 0.13 0.13 92 1031.0
20260901110800 10 207 4.8 6.4 0.00 0.13 0.13 90 1031.1
20260901110255 10 187 8.0 9.7 0.00 0.13 0.13 87 1031.2
20260901105752 10 223 3.2 9.7 0.00 0.13 0.13 88 1030.8
20260901105252 10 232 4.8 6.4 0.00 0.13 0.13 88 1031.4
20260901104747 10 210 8.0 9.7 0.00 0.13 0.13 89 1031.4
20260901104243 9 189 6.4 9.7 0.00 0.13 0.13 94 1031.5
20260901103743 8 213 3.2 9.7 0.00 0.13 0.13 94 1031.4
20260901103237 9 197 6.4 6.4 0.00 0.13 0.13 94 1031.5
20260901102732 8 217 6.4 9.7 0.00 0.13 0.13 95 1031.5
20260901102232 8 231 3.2 4.8 0.00 0.13 0.13 97 1031.5
20260901101729 8 226 3.2 4.8 0.00 0.13 0.13 96 1031.2
20260901101229 8 232 4.8 4.8 0.00 0.13 0.13 96 1031.5
20260901100728 9 207 4.8 4.8 0.00 0.13 0.13 95 1031.5
20260901100223 10 254 0.0 0.0 0.00 0.13 0.13 93 1031.5
20260901095721 10 221 3.2 6.4 0.00 0.13 0.13 89 1031.4
20260901095219 10 191 4.8 9.7 0.00 0.13 0.13 89 1031.9
20260901094719 10 177 4.8 11.3 0.00 0.13 0.13 90 1032.0
20260901094214 10 167 6.4 9.7 0.00 0.13 0.13 85 1032.0
20260901093709 10 224 6.4 12.9 0.00 0.13 0.13 87 1031.6
20260901093208 10 251 3.2 12.9 0.00 0.13 0.13 87 1031.8
20260901092704 10 185 6.4 11.3 0.00 0.13 0.13 87 1031.8
20260901092200 10 204 12.9 17.7 0.00 0.13 0.13 87 1031.8
20260901091650 10 220 6.4 9.7 0.00 0.13 0.13 88 1031.9
20260901091149 10 180 6.4 11.3 0.00 0.13 0.13 89 1032.0
20260901090644 10 205 3.2 6.4 0.00 0.13 0.13 89 1032.0
20260901090140 10 224 4.8 11.3 0.00 0.13 0.13 91 1032.1
20260901085636 9 242 3.2 3.2 0.00 0.13 0.13 94 1032.0
20260901085132 8 218 6.4 9.7 0.00 0.13 0.13 97 1032.1
20260901084628 8 233 3.2 6.4 0.00 0.13 0.13 98 1032.4
20260901084124 8 232 4.8 4.8 0.00 0.13 0.13 98 1032.3
20260901083624 8 240 1.6 3.2 0.00 0.13 0.13 98 1032.1
20260901083122 8 247 1.6 4.8 0.00 0.13 0.13 98 1032.3
20260901082617 8 222 3.2 3.2 0.00 0.13 0.13 98 1032.3
20260901082113 8 224 3.2 3.2 0.00 0.13 0.13 98 1032.1
20260901081608 8 237 1.6 3.2 0.00 0.13 0.13 98 1032.3
20260901081108 8 244 1.6 3.2 0.00 0.13 0.13 98 1032.3
20260901080602 8 232 3.2 4.8 0.00 0.13 0.13 98 1032.4
20260901080101 8 225 3.2 3.2 0.00 0.13 0.13 98 1032.3
20260901075556 8 238 1.6 3.2 0.00 0.13 0.13 98 1032.4
20260901075055 8 218 0.0 0.0 0.00 0.13 0.13 99 1032.5
20260901074549 8 242 0.0 0.0 0.00 0.13 0.13 99 1032.5
20260901074045 8 241 1.6 1.6 0.00 0.13 0.13 98 1032.7
20260901073541 8 242 1.6 3.2 0.13 0.13 0.13 98 1032.7
20260901073036 9 254 0.0 0.0 0.13 0.13 0.13 97 1032.9
20260901072531 9 253 1.6 3.2 0.00 0.10 0.10 97 1032.7
20260901072026 9 252 0.0 0.0 0.00 0.10 0.10 97 1032.8
20260901071525 8 262 1.6 4.8 0.00 0.10 0.10 96 1032.9
20260901071024 9 247 1.6 3.2 0.00 0.10 0.10 96 1032.8
20260901070519 9 233 3.2 4.8 0.00 0.10 0.10 96 1032.7
20260901070015 9 232 3.2 6.4 0.00 0.10 0.10 96 1032.7
20260901065509 9 250 1.6 3.2 0.00 0.10 0.10 96 1032.5
20260901064958 9 241 3.2 6.4 0.00 0.10 0.10 95 1032.7
20260901064455 9 244 3.2 11.3 0.18 0.10 0.10 95 1032.7
20260901063952 9 241 8.0 12.9 0.48 0.10 0.10 96 1032.9
20260901063448 9 204 4.8 6.4 0.48 0.08 0.08 97 1033.2
20260901062943 8 246 3.2 4.8 0.18 0.03 0.03 98 1033.5
20260901062438 9 238 1.6 3.2 0.00 0.00 0.00 98 1032.9
20260901061929 9 245 1.6 3.2 0.00 0.00 0.00 98 1032.9
20260901061424 9 237 1.6 3.2 0.00 0.00 0.00 98 1033.1
20260901060914 9 234 3.2 3.2 0.00 0.00 0.00 98 1032.9
20260901060409 9 237 1.6 3.2 0.00 0.00 0.00 98 1032.7
20260901055908 9 246 1.6 1.6 0.00 0.30 0.30 98 1033.1
20260901055405 9 231 3.2 3.2 0.00 0.30 0.30 98 1033.1
20260901054901 9 219 3.2 3.2 0.13 0.30 0.30 97 1033.1
20260901054358 9 238 3.2 4.8 0.13 0.30 0.30 97 1033.1
20260901053853 9 229 6.4 9.7 0.00 0.28 0.28 98 1033.9
20260901053349 9 224 3.2 4.8 0.00 0.28 0.28 99 1033.5
20260901052844 9 228 3.2 4.8 0.00 0.28 0.28 99 1033.1
20260901052339 9 239 1.6 3.2 0.00 0.28 0.28 99 1032.9
20260901051838 9 226 3.2 3.2 0.00 0.28 0.28 99 1032.7
20260901051333 9 227 3.2 3.2 0.00 0.28 0.28 99 1033.1
20260901050828 9 224 3.2 3.2 0.00 0.28 0.28 99 1033.1
20260901050319 9 230 3.2 3.2 0.00 0.28 0.28 99 1033.3
20260901045813 9 234 1.6 3.2 0.00 0.28 0.28 99 1033.5
20260901045308 9 223 3.2 4.8 0.00 0.28 0.28 99 1033.3
20260901044803 9 229 3.2 3.2 0.00 0.28 0.28 99 1033.2
20260901044259 9 232 3.2 3.2 0.00 0.28 0.28 99 1033.3
20260901043754 9 219 4.8 4.8 0.00 0.28 0.28 99 1033.3
20260901043250 9 248 1.6 1.6 0.00 0.28 0.28 98 1033.5
20260901042750 9 223 3.2 3.2 0.00 0.28 0.28 98 1033.3
20260901042245 9 235 3.2 3.2 0.00 0.28 0.28 98 1033.3
20260901041740 9 242 1.6 3.2 0.00 0.28 0.28 98 1033.5
20260901041240 9 221 3.2 3.2 0.00 0.28 0.28 98 1033.6
20260901040735 9 230 3.2 3.2 0.00 0.28 0.28 98 1033.5
20260901040233 9 241 3.2 3.2 0.00 0.28 0.28 97 1033.3
20260901035732 9 221 3.2 3.2 0.00 0.28 0.28 97 1033.5
20260901035232 10 224 3.2 4.8 0.00 0.28 0.28 96 1033.5
20260901034731 10 220 3.2 3.2 0.00 0.28 0.28 95 1033.3
20260901034226 10 215 3.2 3.2 0.00 0.28 0.28 92 1033.2
20260901033726 10 274 3.2 4.8 0.00 0.28 0.28 95 1033.2
20260901033220 10 270 1.6 4.8 0.00 0.28 0.28 96 1033.3
20260901032718 10 247 1.6 3.2 0.00 0.28 0.28 97 1033.5
20260901032213 10 246 1.6 1.6 0.00 0.28 0.28 95 1033.3
20260901031708 10 354 3.2 4.8 0.00 0.28 0.28 94 1033.3
20260901031204 10 255 3.2 3.2 0.00 0.28 0.28 93 1033.1
20260901030659 10 232 6.4 6.4 0.00 0.28 0.28 92 1033.2
20260901030158 10 263 1.6 1.6 0.00 0.28 0.28 92 1033.7
20260901025653 10 253 0.0 6.4 0.00 0.28 0.28 88 1033.7
20260901025148 10 243 4.8 11.3 0.00 0.28 0.28 93 1033.7
20260901024648 10 248 0.0 1.6 0.00 0.28 0.28 96 1033.9
20260901024147 10 271 0.0 0.0 0.18 0.28 0.28 94 1033.9
20260901023646 10 259 0.0 3.2 0.18 0.28 0.28 94 1034.5
20260901023141 10 179 6.4 9.7 0.00 0.25 0.25 95 1034.6
20260901022636 10 193 6.4 12.9 0.13 0.25 0.25 95 1034.5
20260901022131 10 248 6.4 11.3 0.30 0.25 0.25 95 1034.5
20260901021621 10 241 6.4 11.3 0.48 0.23 0.23 95 1034.5
20260901021117 10 237 6.4 11.3 0.48 0.18 0.18 95 1034.5
20260901020613 10 252 9.7 12.9 0.48 0.13 0.13 94 1034.5
20260901020108 10 199 8.0 14.5 0.61 0.10 0.10 92 1034.0
20260901015603 11 239 6.4 12.9 0.30 0.05 0.05 90 1034.0
20260901015102 11 206 8.0 11.3 0.00 0.00 0.00 87 1034.0
20260901014557 12 246 12.9 16.1 0.00 0.00 0.00 79 1034.0
20260901014053 13 248 3.2 6.4 0.00 0.00 0.00 74 1033.7
20260901013549 13 195 3.2 4.8 0.00 0.00 0.00 76 1033.7
20260901013044 13 231 3.2 3.2 0.00 0.00 0.00 75 1033.5
20260901012544 13 242 0.0 1.6 0.00 0.00 0.00 69 1033.6
20260901012039 13 247 3.2 3.2 0.00 0.00 0.00 70 1033.2
20260901011536 13 298 3.2 3.2 0.00 0.00 0.00 67 1033.3
20260901011033 13 290 0.0 4.8 0.00 0.00 0.00 68 1033.1
20260901010528 13 296 1.6 6.4 0.00 0.00 0.00 68 1032.7
20260901010028 14 298 3.2 4.8 0.00 0.00 0.00 69 1032.8
20260901005522 14 273 0.0 3.2 0.00 0.00 0.00 69 1032.9
20260901005017 14 316 3.2 3.2 0.00 0.00 0.00 68 1032.9
20260901004512 14 284 3.2 3.2 0.00 0.00 0.00 69 1032.9
20260901004006 14 283 1.6 4.8 0.00 0.00 0.00 69 1032.9
20260901003502 14 281 3.2 3.2 0.00 0.00 0.00 69 1032.9
20260901002959 15 348 6.4 9.7 0.00 0.00 0.00 68 1033.2
20260901002454 15 298 1.6 4.8 0.00 0.00 0.00 68 1033.2
20260901001948 15 304 6.4 12.9 0.00 0.00 0.00 64 1033.3
20260901001444 15 314 1.6 4.8 0.00 0.00 0.00 62 1033.1
20260901000939 16 326 1.6 4.8 0.00 0.00 0.00 63 1033.2
20260901000435 15 276 1.6 3.2 0.00 0.00 0.00 58 1033.3
20260831235933 15 270 0.0 1.6 0.00 0.00 0.00 65 1033.6
20260831235428 16 254 1.6 1.6 0.00 0.00 0.00 63 1033.6
20260831234923 16 352 3.2 4.8 0.00 0.00 0.00 55 1033.6
20260831234418 16 278 0.0 3.2 0.00 0.00 0.00 57 1033.3
20260831233913 17 264 0.0 9.7 0.00 0.00 0.00 52 1033.2
20260831233408 17 318 3.2 12.9 0.00 0.00 0.00 52 1033.2
20260831232904 17 269 0.0 3.2 0.00 0.00 0.00 52 1032.9
20260831232400 17 8 6.4 9.7 0.00 0.00 0.00 52 1032.9
20260831231855 17 19 6.4 9.7 0.00 0.00 0.00 51 1033.1
20260831231352 17 297 1.6 9.7 0.00 0.00 0.00 52 1032.9
20260831230847 17 326 3.2 11.3 0.00 0.00 0.00 51 1033.1
20260831230341 17 298 1.6 16.1 0.00 0.00 0.00 53 1032.9
20260831225836 17 325 3.2 20.9 0.00 0.00 0.00 53 1032.9
20260831225330 17 0 4.8 6.4 0.00 0.00 0.00 51 1032.9
20260831224826 18 343 4.8 12.9 0.00 0.00 0.00 51 1033.1
20260831224321 17 339 1.6 3.2 0.00 0.00 0.00 53 1033.2
20260831223816 17 341 4.8 12.9 0.00 0.00 0.00 52 1033.2
20260831223312 18 96 1.6 3.2 0.00 0.00 0.00 52 1033.3
20260831222809 17 255 1.6 4.8 0.00 0.00 0.00 53 1033.2
20260831222306 17 312 6.4 9.7 0.00 0.00 0.00 53 1033.1
20260831221759 18 341 1.6 4.8 0.00 0.00 0.00 51 1033.1
20260831221254 18 304 4.8 6.4 0.00 0.00 0.00 51 1033.3
20260831220755 18 20 9.7 11.3 0.00 0.00 0.00 51 1033.3
20260831220250 18 348 3.2 14.5 0.00 0.00 0.00 52 1033.3
20260831215749 17 269 0.0 6.4 0.00 0.00 0.00 53 1033.5
20260831215246 17 248 3.2 4.8 0.00 0.00 0.00 54 1033.3
20260831214742 17 65 9.7 14.5 0.00 0.00 0.00 53 1033.2
20260831214239 17 299 1.6 6.4 0.00 0.00 0.00 53 1033.5
20260831213735 17 0 3.2 16.1 0.00 0.00 0.00 53 1033.2
20260831213232 18 203 3.2 6.4 0.00 0.00 0.00 51 1033.3
20260831212731 18 76 3.2 12.9 0.00 0.00 0.00 52 1033.3
20260831212228 18 50 8.0 11.3 0.00 0.00 0.00 51 1033.5
20260831211726 18 348 8.0 16.1 0.00 0.00 0.00 52 1033.6
20260831211222 18 88 9.7 14.5 0.00 0.00 0.00 50 1033.6
20260831210716 20 277 3.2 12.9 0.00 0.00 0.00 50 1033.7
20260831210213 18 228 1.6 6.4 0.00 0.00 0.00 50 1033.6
20260831205712 19 311 4.8 9.7 0.00 0.00 0.00 50 1034.0
20260831205208 19 343 4.8 6.4 0.00 0.00 0.00 51 1033.9
20260831204703 18 28 3.2 12.9 0.00 0.00 0.00 52 1033.6
20260831204202 18 84 4.8 11.3 0.00 0.00 0.00 53 1033.9
20260831203701 18 257 4.8 11.3 0.00 0.00 0.00 52 1033.7
20260831203156 18 101 6.4 12.9 0.00 0.00 0.00 53 1034.0
20260831202654 18 304 3.2 6.4 0.00 0.00 0.00 53 1033.9
20260831202149 18 226 9.7 14.5 0.00 0.00 0.00 53 1034.3
20260831201648 18 135 11.3 12.9 0.00 0.00 0.00 52 1033.9
20260831201143 19 199 6.4 12.9 0.00 0.00 0.00 51 1034.1
20260831200639 18 94 8.0 11.3 0.00 0.00 0.00 52 1034.3
20260831200138 17 99 4.8 6.4 0.00 0.00 0.00 52 1034.5
20260831195634 18 155 4.8 9.7 0.00 0.00 0.00 52 1034.1
20260831195129 17 246 1.6 11.3 0.00 0.00 0.00 53 1034.3
20260831194624 17 330 3.2 6.4 0.00 0.00 0.00 52 1034.4
20260831194119 17 180 4.8 12.9 0.00 0.00 0.00 53 1034.4
20260831193614 18 289 1.6 9.7 0.00 0.00 0.00 52 1034.5
20260831193109 17 242 3.2 6.4 0.00 0.00 0.00 51 1034.5
20260831192604 17 284 0.0 3.2 0.00 0.00 0.00 51 1034.9
20260831192059 18 52 4.8 12.9 0.00 0.00 0.00 50 1034.4
20260831191555 18 64 9.7 14.5 0.00 0.00 0.00 49 1034.5
20260831191050 17 242 3.2 9.7 0.00 0.00 0.00 50 1034.6
20260831190546 17 348 9.7 11.3 0.00 0.00 0.00 50 1035.0
20260831190044 17 1 1.6 11.3 0.00 0.00 0.00 51 1035.0
20260831185540 17 293 1.6 3.2 0.00 0.00 0.00 53 1034.9
20260831185036 17 290 4.8 6.4 0.00 0.00 0.00 51 1034.9
20260831184530 18 94 3.2 11.3 0.00 0.00 0.00 51 1035.2
20260831184026 17 59 8.0 11.3 0.00 0.00 0.00 52 1034.9
20260831183525 17 53 3.2 6.4 0.00 0.00 0.00 53 1035.2
20260831183024 17 259 1.6 4.8 0.00 0.00 0.00 53 1035.2
20260831182519 17 219 3.2 3.2 0.00 0.00 0.00 52 1035.2
20260831182014 16 275 3.2 6.4 0.00 0.00 0.00 53 1035.2
20260831181509 16 3 3.2 4.8 0.00 0.00 0.00 54 1035.2
20260831181004 17 277 1.6 4.8 0.00 0.00 0.00 53 1035.3
20260831180458 17 97 4.8 11.3 0.00 0.00 0.00 52 1035.0
20260831175958 17 318 3.2 6.4 0.00 0.00 0.00 51 1035.4
20260831175454 17 201 3.2 6.4 0.00 0.00 0.00 50 1035.4
20260831174950 18 280 1.6 9.7 0.00 0.00 0.00 49 1035.4
20260831174440 17 262 0.0 1.6 0.00 0.00 0.00 51 1035.3
20260831173939 17 274 3.2 4.8 0.00 0.00 0.00 53 1035.4
20260831173438 17 103 3.2 6.4 0.00 0.00 0.00 51 1035.4
20260831172934 17 153 1.6 9.7 0.00 0.00 0.00 52 1035.4
20260831172429 17 224 3.2 3.2 0.00 0.00 0.00 49 1035.6
20260831171924 17 261 1.6 4.8 0.00 0.00 0.00 53 1035.4
20260831171420 16 221 1.6 4.8 0.00 0.00 0.00 51 1035.6
20260831170916 17 294 1.6 3.2 0.00 0.00 0.00 51 1035.3
20260831170412 16 286 4.8 4.8 0.00 0.00 0.00 50 1035.4
20260831165909 17 44 3.2 9.7 0.00 0.00 0.00 51 1035.6
20260831165405 17 59 4.8 12.9 0.00 0.00 0.00 50 1035.3
20260831164901 17 236 4.8 12.9 0.00 0.00 0.00 50 1035.4
20260831164357 17 282 1.6 3.2 0.00 0.00 0.00 49 1035.2
20260831163852 17 320 3.2 6.4 0.00 0.00 0.00 49 1035.3
20260831163347 17 128 4.8 4.8 0.00 0.00 0.00 47 1035.4
20260831162846 17 238 1.6 3.2 0.00 0.00 0.00 48 1035.2
20260831162342 18 260 0.0 6.4 0.00 0.00 0.00 47 1035.2
20260831161840 18 230 0.0 1.6 0.00 0.00 0.00 46 1035.4
20260831161336 17 346 3.2 4.8 0.00 0.00 0.00 48 1035.2
20260831160831 17 242 0.0 1.6 0.00 0.00 0.00 49 1035.2
20260831160326 17 274 0.0 4.8 0.00 0.00 0.00 49 1034.9
20260831155820 17 254 0.0 3.2 0.00 0.00 0.00 49 1035.2
20260831155315 16 259 0.0 4.8 0.00 0.00 0.00 48 1035.2
20260831154811 17 250 0.0 1.6 0.00 0.00 0.00 46 1035.2
20260831154307 17 246 0.0 1.6 0.00 0.00 0.00 46 1034.8
20260831153805 17 231 1.6 4.8 0.00 0.00 0.00 46 1035.0
20260831153301 17 230 1.6 6.4 0.00 0.00 0.00 45 1034.9
20260831152757 17 236 9.7 11.3 0.00 0.00 0.00 45 1034.6
20260831152253 17 254 1.6 4.8 0.00 0.00 0.00 46 1035.0
20260831151748 17 291 3.2 4.8 0.00 0.00 0.00 44 1034.6
20260831151247 17 223 0.0 1.6 0.00 0.00 0.00 46 1034.6
20260831150742 17 23 3.2 4.8 0.00 0.00 0.00 50 1034.8
20260831150238 18 279 1.6 4.8 0.00 0.00 0.00 44 1034.8
20260831145736 18 234 1.6 3.2 0.00 0.00 0.00 47 1034.8
20260831145233 17 248 1.6 3.2 0.00 0.00 0.00 45 1034.6
20260831144729 16 247 0.0 1.6 0.00 0.00 0.00 46 1034.9
20260831144225 16 237 1.6 9.7 0.00 0.00 0.00 46 1035.0
20260831143724 16 263 0.0 0.0 0.00 0.00 0.00 47 1034.9
20260831143220 16 239 1.6 1.6 0.00 0.00 0.00 51 1034.8
20260831142715 15 257 1.6 4.8 0.00 0.00 0.00 49 1034.6
20260831142211 15 229 3.2 3.2 0.00 0.00 0.00 51 1035.0
20260831141710 15 244 0.0 0.0 0.00 0.00 0.00 53 1034.8
20260831141205 14 250 0.0 1.6 0.00 0.00 0.00 61 1034.8
20260831140704 13 243 1.6 3.2 0.00 0.00 0.00 58 1034.5
20260831140159 13 240 3.2 3.2 0.00 0.00 0.00 59 1034.6
20260831135657 12 233 1.6 3.2 0.00 0.00 0.00 64 1034.4
20260831135153 12 234 1.6 3.2 0.00 0.00 0.00 62 1034.3
20260831134649 12 240 1.6 3.2 0.00 0.00 0.00 62 1034.1
20260831134144 12 219 3.2 3.2 0.00 0.00 0.00 63 1034.3
20260831133643 12 215 3.2 3.2 0.00 0.00 0.00 63 1034.0
20260831133138 12 237 1.6 3.2 0.00 0.00 0.00 63 1034.0
20260831132634 12 240 1.6 1.6 0.00 0.00 0.00 61 1033.9
20260831132133 12 232 3.2 3.2 0.00 0.00 0.00 59 1033.9
20260831131628 12 218 3.2 4.8 0.00 0.00 0.00 57 1033.9
20260831131124 12 233 3.2 4.8 0.00 0.00 0.00 54 1033.7
20260831130619 12 222 1.6 4.8 0.00 0.00 0.00 53 1033.6
20260831130115 12 235 1.6 1.6 0.00 0.00 0.00 57 1033.5
20260831125613 12 222 3.2 3.2 0.00 0.00 0.00 56 1033.6
20260831125109 12 223 3.2 4.8 0.00 0.00 0.00 56 1033.7
20260831124605 11 228 3.2 4.8 0.00 0.00 0.00 57 1033.5
20260831124101 12 222 3.2 4.8 0.00 0.00 0.00 57 1033.3
20260831123600 11 226 3.2 4.8 0.00 0.00 0.00 60 1033.6
20260831123054 12 213 3.2 4.8 0.00 0.00 0.00 58 1033.5
20260831122549 12 218 3.2 4.8 0.00 0.00 0.00 58 1033.3
20260831122044 12 242 1.6 4.8 0.00 0.00 0.00 57 1033.2
20260831121539 13 211 3.2 4.8 0.00 0.00 0.00 56 1033.1
20260831121035 12 189 6.4 6.4 0.00 0.00 0.00 53 1033.1
20260831120534 12 224 3.2 6.4 0.00 0.00 0.00 54 1033.2
20260831120030 12 218 3.2 4.8 0.00 0.00 0.00 55 1032.9
20260831115526 12 196 3.2 6.4 0.00 0.00 0.00 56 1033.2
20260831115021 12 217 3.2 9.7 0.00 0.00 0.00 59 1033.1
20260831114520 12 212 4.8 4.8 0.00 0.00 0.00 56 1032.9
20260831114016 11 201 4.8 6.4 0.00 0.00 0.00 58 1032.9
20260831113514 12 208 4.8 4.8 0.00 0.00 0.00 59 1033.2